DW7214 Weather Reports


time (UTC)temp
C
wind
direction
speed
KPH
gust
KPH
rain 1hr
cm
rain 24hr
cm
rain mn
cm
humidity
%
barometer
mb
20260906084535 12 236 0.0 0.0 0.00 0.00 0.00 93 1015.8
20260906083032 12 236 0.0 0.0 0.00 0.00 0.00 93 1015.8
20260906081521 12 236 0.0 0.0 0.00 0.00 0.00 93 1015.7
20260906080022 12 236 0.0 0.0 0.00 0.00 0.00 93 1015.8
20260906074530 12 236 0.0 3.2 0.00 0.00 0.00 93 1015.8
20260906073030 12 244 0.0 0.0 0.00 0.00 0.00 93 1016.0
20260906071533 12 248 0.0 3.2 0.00 0.00 0.00 93 1016.1
20260906070025 12 249 0.0 0.0 0.00 0.00 0.00 92 1016.2
20260906064528 12 257 0.0 0.0 0.00 0.00 0.00 92 1016.2
20260906063031 12 219 0.0 0.0 0.00 0.00 0.00 92 1016.2
20260906061534 12 208 0.0 0.0 0.00 0.00 0.00 92 1016.2
20260906060019 12 208 0.0 0.0 0.00 0.00 0.00 91 1016.1
20260906054528 12 208 0.0 0.0 0.00 0.00 0.00 91 1016.3
20260906053032 12 208 0.0 0.0 0.00 0.00 0.00 90 1016.3
20260906051530 13 209 0.0 3.2 0.00 0.00 0.00 90 1016.3
20260906050037 13 242 0.0 3.2 0.00 0.00 0.00 90 1016.4
20260906044525 13 250 0.0 3.2 0.00 0.00 0.00 89 1016.5
20260906043009 13 244 0.0 3.2 0.00 0.00 0.00 89 1016.6
20260906041510 13 234 0.0 0.0 0.00 0.00 0.00 89 1016.6
20260906040026 13 237 0.0 0.0 0.00 0.00 0.00 88 1016.5
20260906034527 14 216 3.2 6.4 0.00 0.00 0.00 87 1016.4
20260906033025 14 244 0.0 4.8 0.00 0.00 0.00 86 1016.3
20260906031508 15 253 1.6 4.8 0.00 0.00 0.00 85 1016.1
20260906030009 15 220 1.6 4.8 0.00 0.00 0.00 83 1016.2
20260906024518 16 246 1.6 4.8 0.00 0.00 0.00 82 1016.2
20260906023023 16 215 3.2 6.4 0.00 0.00 0.00 80 1016.3
20260906021531 17 226 0.0 3.2 0.00 0.00 0.00 76 1016.4
20260906020009 17 208 1.6 4.8 0.00 0.00 0.00 73 1016.4
20260906014519 18 217 0.0 3.2 0.00 0.00 0.00 72 1016.4
20260906013020 18 211 0.0 3.2 0.00 0.00 0.00 70 1016.2
20260906011525 19 170 0.0 0.0 0.00 0.00 0.00 69 1016.2
20260906010006 20 96 0.0 0.0 0.00 0.00 0.00 68 1016.2
20260906004511 20 76 0.0 4.8 0.00 0.00 0.00 61 1016.2
20260906003022 20 297 0.0 4.8 0.00 0.00 0.00 62 1016.2
20260906001535 19 188 0.0 1.6 0.00 0.00 0.00 69 1016.3
20260906000030 19 232 0.0 4.8 0.00 0.00 0.00 64 1016.2
20260905234508 20 243 3.2 8.0 0.00 0.00 0.00 62 1016.2
20260905233018 20 178 0.0 6.4 0.00 0.00 0.00 65 1016.2
20260905231532 20 211 1.6 6.4 0.00 0.00 0.00 65 1016.4
20260905230031 20 178 0.0 11.3 0.00 0.00 0.00 62 1016.5
20260905224531 21 327 0.0 6.4 0.00 0.00 0.00 59 1016.6
20260905223016 21 190 3.2 8.0 0.00 0.03 0.00 60 1016.7
20260905221523 21 211 1.6 4.8 0.00 0.03 0.00 61 1016.8
20260905220030 21 261 3.2 6.4 0.00 0.03 0.00 62 1017.0
20260905214531 20 234 1.6 4.8 0.00 0.08 0.00 65 1017.0
20260905213011 19 204 1.6 6.4 0.00 0.08 0.00 64 1017.2
20260905211516 20 312 0.0 3.2 0.00 0.08 0.00 65 1017.3
20260905210026 18 124 0.0 4.8 0.00 0.08 0.00 70 1017.5
20260905204526 18 313 0.0 4.8 0.00 0.08 0.00 69 1017.6
20260905203032 17 232 3.2 4.8 0.00 0.13 0.00 72 1017.6
20260905201516 17 350 1.6 3.2 0.00 0.18 0.00 74 1017.7
20260905200026 17 211 1.6 4.8 0.00 0.18 0.00 76 1017.7
20260905194527 17 103 0.0 6.4 0.00 0.18 0.00 76 1017.9
20260905193034 16 236 0.0 1.6 0.00 0.18 0.00 80 1018.0
20260905191511 16 235 3.2 8.0 0.00 0.18 0.00 81 1018.1
20260905190030 16 236 3.2 6.4 0.00 0.18 0.00 81 1018.1
20260905184506 16 328 0.0 4.8 0.00 0.18 0.00 80 1018.1
20260905183012 15 352 1.6 4.8 0.00 0.18 0.00 81 1018.3
20260905181513 15 199 0.0 3.2 0.00 0.18 0.00 85 1018.3
20260905180022 15 344 0.0 4.8 0.00 0.18 0.00 85 1018.3
20260905174527 15 68 0.0 4.8 0.00 0.23 0.00 86 1018.2
20260905173006 15 268 0.0 3.2 0.00 0.23 0.00 87 1018.2
20260905171511 14 336 1.6 4.8 0.00 0.23 0.00 87 1018.1
20260905170016 14 33 0.0 4.8 0.00 0.23 0.00 88 1018.1
20260905164521 14 24 0.0 0.0 0.00 0.23 0.00 89 1018.1
20260905163003 14 352 0.0 3.2 0.00 0.23 0.00 89 1018.2
20260905161516 13 323 0.0 3.2 0.00 0.23 0.00 91 1018.2
20260905160013 13 330 0.0 3.2 0.00 0.23 0.00 91 1018.3
20260905154518 13 351 0.0 4.8 0.00 0.23 0.00 92 1018.3
20260905153025 13 352 0.0 3.2 0.00 0.23 0.00 93 1018.2
20260905151504 13 255 0.0 0.0 0.00 0.23 0.00 94 1018.2
20260905150013 13 245 0.0 0.0 0.00 0.23 0.00 95 1018.2
20260905144524 12 245 0.0 0.0 0.00 0.28 0.00 95 1018.2
20260905143023 12 245 0.0 0.0 0.00 0.30 0.00 95 1018.1
20260905141528 12 245 0.0 0.0 0.00 0.33 0.00 95 1018.1
20260905140018 12 245 0.0 0.0 0.00 0.33 0.00 95 1018.0
20260905134516 12 245 0.0 0.0 0.00 0.33 0.00 95 1018.0
20260905133026 12 245 0.0 0.0 0.00 0.41 0.00 95 1017.9
20260905131529 12 245 0.0 0.0 0.00 0.41 0.00 95 1017.9
20260905130028 12 245 0.0 0.0 0.00 0.41 0.00 95 1017.8
20260905124514 12 245 0.0 0.0 0.00 0.41 0.00 95 1017.7
20260905123020 12 245 0.0 0.0 0.00 0.41 0.00 95 1017.7
20260905121523 12 245 0.0 0.0 0.00 0.41 0.00 95 1017.6
20260905120042 12 245 0.0 0.0 0.00 0.41 0.00 95 1017.4
20260905114512 12 245 0.0 0.0 0.00 0.41 0.00 95 1017.5
20260905113016 12 245 0.0 0.0 0.00 0.43 0.00 95 1017.4
20260905111537 12 245 0.0 0.0 0.00 0.43 0.00 95 1017.3
20260905110030 13 245 0.0 0.0 0.00 0.46 0.00 95 1017.4
20260905104530 12 245 0.0 0.0 0.00 0.51 0.00 95 1017.4
20260905103022 12 245 0.0 0.0 0.00 0.56 0.00 95 1017.4
20260905101522 12 245 0.0 0.0 0.00 0.58 0.00 95 1017.4
20260905100024 12 245 0.0 0.0 0.00 0.61 0.00 95 1017.5
20260905094529 12 245 0.0 0.0 0.00 0.64 0.00 95 1017.5
20260905093031 12 245 0.0 0.0 0.00 0.69 0.00 95 1017.4
20260905091516 12 245 0.0 0.0 0.00 0.71 0.00 95 1017.3
20260905090006 12 245 0.0 0.0 0.00 0.71 0.00 95 1017.2